Location: Unspecified
(62.4500°N, 0.0000°E)
Time: 18:57:29
(UTC+00:00)

ISS - Visible Passes

Search period start: 21 May 2019 00:00
Search period end: 31 May 2019 00:00
Orbit: 407 x 410 km, 51.6° (Epoch: 22 May)

Date Brightness Start Highest point End Pass type
(mag) Time Alt. Az. Time Alt. Az. Time Alt. Az.
21 May -1.8 00:00:48 10° SW 00:02:14 12° S 00:03:40 10° SSE visible
21 May -1.9 23:10:01 10° SW 23:11:39 13° S 23:13:16 10° SSE visible
22 May -1.6 23:56:30 10° SSW 23:56:35 10° SSW 23:56:40 10° SSW visible
23 May -1.7 23:04:46 10° SW 23:05:59 12° SSW 23:07:13 10° S visible
